| time (UTC) | temp F | wind direction | speed MPH | gust MPH | rain 1hr in | rain 24hr in | rain mn in | humidity % | barometer mb |
| 20260902212751 | 55 | 322 | 0.0 | 2.0 | 0.00 | 0.17 | 0.12 | 87 | 1009.6 |
| 20260902212251 | 55 | 322 | 0.0 | 5.0 | 0.00 | 0.17 | 0.12 | 87 | 1009.5 |
| 20260902211741 | 54 | 286 | 0.0 | 5.0 | 0.00 | 0.17 | 0.12 | 88 | 1009.4 |
| 20260902211720 | 54 | 319 | 0.0 | 4.0 | 0.00 | 0.17 | 0.12 | 89 | 1009.4 |
| 20260902210729 | 54 | 310 | 1.0 | 4.0 | 0.01 | 0.17 | 0.12 | 89 | 1009.3 |
| 20260902210222 | 54 | 36 | 1.0 | 4.0 | 0.01 | 0.17 | 0.12 | 90 | 1009.1 |
| 20260902205717 | 54 | 291 | 1.0 | 8.0 | 0.01 | 0.17 | 0.12 | 90 | 1009.2 |
| 20260902205216 | 54 | 310 | 1.0 | 8.0 | 0.01 | 0.17 | 0.12 | 91 | 1009.2 |
| 20260902204937 | 54 | 298 | 1.0 | 4.0 | 0.01 | 0.17 | 0.12 | 91 | 1009.4 |
| 20260902204217 | 54 | 294 | 0.0 | 4.0 | 0.01 | 0.17 | 0.12 | 92 | 1009.3 |
| 20260902203716 | 54 | 28 | 1.0 | 3.0 | 0.01 | 0.17 | 0.12 | 92 | 1009.1 |
| 20260902203215 | 54 | 301 | 1.0 | 4.0 | 0.01 | 0.17 | 0.12 | 92 | 1009.3 |
| 20260902202715 | 54 | 278 | 1.0 | 4.0 | 0.02 | 0.17 | 0.12 | 93 | 1009.4 |
| 20260902202211 | 54 | 299 | 0.0 | 4.0 | 0.02 | 0.17 | 0.12 | 93 | 1009.3 |
| 20260902201711 | 54 | 355 | 0.0 | 4.0 | 0.02 | 0.17 | 0.12 | 93 | 1009.3 |
| 20260902201211 | 53 | 289 | 1.0 | 6.0 | 0.02 | 0.17 | 0.12 | 94 | 1009.3 |
| 20260902200709 | 53 | 337 | 1.0 | 6.0 | 0.01 | 0.17 | 0.12 | 94 | 1009.2 |
| 20260902200207 | 53 | 296 | 1.0 | 5.0 | 0.02 | 0.17 | 0.11 | 94 | 1009.1 |
| 20260902195706 | 53 | 305 | 1.0 | 6.0 | 0.02 | 0.17 | 0.11 | 94 | 1009.0 |
| 20260902195205 | 53 | 36 | 1.0 | 6.0 | 0.02 | 0.17 | 0.11 | 94 | 1009.0 |
| 20260902194705 | 53 | 42 | 0.0 | 2.0 | 0.02 | 0.17 | 0.11 | 94 | 1008.9 |
| 20260902194206 | 53 | 339 | 0.0 | 2.0 | 0.02 | 0.17 | 0.11 | 94 | 1008.9 |
| 20260902193705 | 53 | 282 | 0.0 | 3.0 | 0.02 | 0.17 | 0.11 | 94 | 1009.0 |
| 20260902193205 | 53 | 310 | 0.0 | 3.0 | 0.02 | 0.17 | 0.11 | 94 | 1009.2 |
| 20260902192705 | 53 | 284 | 0.0 | 2.0 | 0.01 | 0.16 | 0.10 | 94 | 1009.1 |
| 20260902192159 | 53 | 33 | 0.0 | 4.0 | 0.01 | 0.16 | 0.10 | 94 | 1009.1 |
| 20260902191922 | 54 | 60 | 0.0 | 4.0 | 0.01 | 0.16 | 0.10 | 94 | 1009.2 |
| 20260902191152 | 54 | 340 | 0.0 | 0.0 | 0.01 | 0.16 | 0.10 | 94 | 1009.3 |
| 20260902191131 | 54 | 26 | 0.0 | 2.0 | 0.02 | 0.16 | 0.10 | 94 | 1009.1 |
| 20260902190134 | 54 | 313 | 0.0 | 4.0 | 0.02 | 0.15 | 0.09 | 94 | 1009.1 |
| 20260902185630 | 54 | 46 | 0.0 | 4.0 | 0.03 | 0.15 | 0.09 | 94 | 1008.9 |
| 20260902185350 | 53 | 5 | 1.0 | 3.0 | 0.03 | 0.15 | 0.09 | 94 | 1008.9 |
| 20260902184620 | 54 | 18 | 1.0 | 4.0 | 0.03 | 0.15 | 0.09 | 94 | 1008.5 |
| 20260902184120 | 54 | 62 | 1.0 | 5.0 | 0.03 | 0.15 | 0.09 | 94 | 1008.5 |
| 20260902183620 | 54 | 32 | 0.0 | 5.0 | 0.04 | 0.15 | 0.09 | 94 | 1008.5 |
| 20260902183118 | 54 | 33 | 1.0 | 6.0 | 0.05 | 0.15 | 0.09 | 94 | 1008.5 |
| 20260902182620 | 54 | 37 | 2.0 | 6.0 | 0.05 | 0.15 | 0.09 | 94 | 1008.5 |
| 20260902182118 | 54 | 61 | 2.0 | 7.0 | 0.05 | 0.15 | 0.09 | 94 | 1008.8 |
| 20260902181618 | 54 | 61 | 1.0 | 7.0 | 0.05 | 0.15 | 0.09 | 94 | 1008.9 |
| 20260902181118 | 54 | 38 | 1.0 | 5.0 | 0.05 | 0.15 | 0.09 | 94 | 1009.0 |
| 20260902180618 | 54 | 55 | 1.0 | 5.0 | 0.03 | 0.13 | 0.09 | 94 | 1008.0 |
| 20260902180116 | 54 | 47 | 0.0 | 4.0 | 0.02 | 0.13 | 0.07 | 94 | 1009.0 |
| 20260902175618 | 54 | 59 | 0.0 | 4.0 | 0.02 | 0.12 | 0.06 | 94 | 1008.9 |
| 20260902175109 | 54 | 50 | 1.0 | 4.0 | 0.02 | 0.12 | 0.06 | 94 | 1008.7 |
| 20260902174607 | 54 | 45 | 2.0 | 6.0 | 0.02 | 0.12 | 0.06 | 94 | 1008.5 |
| 20260902174106 | 54 | 46 | 2.0 | 6.0 | 0.02 | 0.12 | 0.06 | 94 | 1008.4 |
| 20260902173607 | 54 | 40 | 1.0 | 5.0 | 0.02 | 0.11 | 0.06 | 94 | 1009.0 |
| 20260902173107 | 54 | 22 | 1.0 | 4.0 | 0.01 | 0.10 | 0.05 | 94 | 1009.1 |
| 20260902172607 | 54 | 25 | 1.0 | 5.0 | 0.01 | 0.10 | 0.05 | 94 | 1009.0 |
| 20260902172105 | 54 | 43 | 1.0 | 5.0 | 0.01 | 0.10 | 0.05 | 94 | 1008.9 |
| 20260902171603 | 54 | 24 | 2.0 | 7.0 | 0.01 | 0.10 | 0.05 | 93 | 1008.9 |
| 20260902171149 | 54 | 43 | 2.0 | 8.0 | 0.02 | 0.10 | 0.05 | 93 | 1009.0 |
| 20260902170050 | 54 | 7 | 2.0 | 7.0 | 0.03 | 0.10 | 0.05 | 93 | 1009.4 |
| 20260902165550 | 54 | 7 | 2.0 | 7.0 | 0.03 | 0.10 | 0.05 | 93 | 1009.3 |
| 20260902165319 | 54 | 31 | 2.0 | 7.0 | 0.02 | 0.09 | 0.04 | 93 | 1009.5 |
| 20260902164548 | 54 | 40 | 2.0 | 6.0 | 0.02 | 0.09 | 0.04 | 93 | 1010.0 |
| 20260902164048 | 54 | 44 | 1.0 | 4.0 | 0.03 | 0.09 | 0.04 | 93 | 1010.0 |
| 20260902164027 | 54 | 34 | 0.0 | 3.0 | 0.04 | 0.09 | 0.04 | 93 | 1010.1 |
| 20260902163048 | 54 | 48 | 1.0 | 6.0 | 0.04 | 0.09 | 0.04 | 93 | 1010.2 |
| 20260902162548 | 54 | 60 | 2.0 | 6.0 | 0.04 | 0.09 | 0.04 | 93 | 1010.1 |
| 20260902162039 | 55 | 62 | 1.0 | 4.0 | 0.04 | 0.09 | 0.04 | 92 | 1010.3 |
| 20260902161538 | 55 | 47 | 1.0 | 3.0 | 0.04 | 0.09 | 0.04 | 92 | 1010.4 |
| 20260902161040 | 55 | 46 | 0.0 | 5.0 | 0.03 | 0.09 | 0.03 | 92 | 1010.7 |
| 20260902160539 | 55 | 38 | 1.0 | 5.0 | 0.02 | 0.08 | 0.02 | 91 | 1010.8 |
| 20260902160301 | 55 | 54 | 0.0 | 3.0 | 0.02 | 0.07 | 0.02 | 91 | 1010.8 |
| 20260902155804 | 55 | 344 | 0.0 | 4.0 | 0.02 | 0.07 | 0.02 | 91 | 1010.8 |
| 20260902155034 | 55 | 9 | 1.0 | 4.0 | 0.02 | 0.07 | 0.02 | 90 | 1010.8 |
| 20260902154534 | 55 | 348 | 1.0 | 4.0 | 0.02 | 0.07 | 0.02 | 90 | 1010.9 |
| 20260902154256 | 55 | 36 | 1.0 | 6.0 | 0.01 | 0.06 | 0.01 | 90 | 1010.8 |
| 20260902154019 | 55 | 51 | 1.0 | 6.0 | 0.00 | 0.06 | 0.00 | 89 | 1011.1 |
| 20260902153034 | 55 | 40 | 0.0 | 5.0 | 0.00 | 0.06 | 0.00 | 90 | 1011.1 |
| 20260902152802 | 55 | 38 | 0.0 | 2.0 | 0.00 | 0.06 | 0.00 | 89 | 1011.0 |
| 20260902152035 | 55 | 38 | 0.0 | 2.0 | 0.00 | 0.06 | 0.00 | 89 | 1010.8 |
| 20260902151534 | 55 | 62 | 0.0 | 2.0 | 0.00 | 0.06 | 0.00 | 89 | 1010.8 |
| 20260902151036 | 55 | 56 | 0.0 | 0.0 | 0.00 | 0.06 | 0.00 | 89 | 1010.8 |
| 20260902150535 | 55 | 58 | 0.0 | 1.0 | 0.00 | 0.06 | 0.00 | 89 | 1010.8 |
| 20260902150034 | 55 | 54 | 0.0 | 1.0 | 0.00 | 0.06 | 0.00 | 90 | 1010.9 |
| 20260902145534 | 55 | 5 | 0.0 | 0.0 | 0.00 | 0.06 | 0.00 | 89 | 1011.0 |
| 20260902145034 | 55 | 5 | 0.0 | 0.0 | 0.00 | 0.06 | 0.00 | 89 | 1011.2 |
| 20260902144802 | 55 | 305 | 0.0 | 0.0 | 0.01 | 0.06 | 0.00 | 89 | 1011.2 |
| 20260902144034 | 55 | 305 | 0.0 | 0.0 | 0.01 | 0.06 | 0.00 | 89 | 1011.2 |
| 20260902144017 | 55 | 303 | 0.0 | 0.0 | 0.01 | 0.06 | 0.00 | 89 | 1011.3 |
| 20260902143035 | 55 | 51 | 0.0 | 0.0 | 0.02 | 0.06 | 0.00 | 90 | 1011.4 |
| 20260902142801 | 56 | 304 | 0.0 | 2.0 | 0.02 | 0.06 | 0.00 | 90 | 1011.8 |
| 20260902142247 | 56 | 303 | 0.0 | 4.0 | 0.02 | 0.06 | 0.00 | 90 | 1011.8 |
| 20260902141525 | 56 | 342 | 1.0 | 4.0 | 0.02 | 0.06 | 0.00 | 90 | 1012.1 |
| 20260902141017 | 56 | 38 | 1.0 | 4.0 | 0.02 | 0.06 | 0.00 | 89 | 1011.9 |
| 20260902140510 | 56 | 31 | 0.0 | 3.0 | 0.04 | 0.06 | 0.00 | 89 | 1012.1 |
| 20260902140455 | 56 | 25 | 0.0 | 2.0 | 0.05 | 0.06 | 0.00 | 89 | 1012.2 |
| 20260902135459 | 56 | 277 | 0.0 | 3.0 | 0.06 | 0.06 | 0.06 | 89 | 1012.4 |
| 20260902134953 | 56 | 304 | 0.0 | 3.0 | 0.06 | 0.06 | 0.06 | 89 | 1012.5 |
| 20260902134930 | 56 | 338 | 0.0 | 2.0 | 0.05 | 0.05 | 0.05 | 88 | 1012.4 |
| 20260902133951 | 56 | 353 | 0.0 | 3.0 | 0.05 | 0.05 | 0.05 | 88 | 1012.7 |
| 20260902133436 | 56 | 276 | 1.0 | 5.0 | 0.05 | 0.05 | 0.05 | 87 | 1012.8 |
| 20260902132932 | 56 | 274 | 1.0 | 5.0 | 0.04 | 0.04 | 0.04 | 87 | 1012.9 |
| 20260902132425 | 56 | 287 | 2.0 | 5.0 | 0.04 | 0.04 | 0.04 | 86 | 1012.8 |
| 20260902131917 | 56 | 325 | 1.0 | 5.0 | 0.04 | 0.04 | 0.04 | 86 | 1012.8 |
| 20260902131416 | 56 | 293 | 1.0 | 4.0 | 0.03 | 0.03 | 0.03 | 86 | 1012.8 |
| 20260902130904 | 57 | 6 | 1.0 | 4.0 | 0.03 | 0.03 | 0.03 | 86 | 1012.8 |
| 20260902130359 | 57 | 31 | 0.0 | 3.0 | 0.02 | 0.02 | 0.02 | 84 | 1012.9 |
| 20260902125854 | 57 | 322 | 1.0 | 4.0 | 0.01 | 0.01 | 0.01 | 82 | 1012.8 |
| 20260902125353 | 58 | 313 | 1.0 | 4.0 | 0.00 | 0.00 | 0.00 | 81 | 1012.8 |
| 20260902125333 | 58 | 341 | 1.0 | 4.0 | 0.00 | 0.00 | 0.00 | 79 | 1012.8 |
| 20260902124354 | 58 | 40 | 1.0 | 3.0 | 0.00 | 0.00 | 0.00 | 78 | 1012.9 |
| 20260902123852 | 58 | 289 | 0.0 | 3.0 | 0.00 | 0.00 | 0.00 | 78 | 1012.8 |
| 20260902123349 | 59 | 301 | 0.0 | 3.0 | 0.00 | 0.00 | 0.00 | 77 | 1012.7 |
| 20260902122849 | 59 | 347 | 1.0 | 5.0 | 0.00 | 0.00 | 0.00 | 77 | 1012.7 |
| 20260902122348 | 59 | 349 | 1.0 | 5.0 | 0.00 | 0.00 | 0.00 | 76 | 1012.5 |
| 20260902121847 | 59 | 31 | 1.0 | 3.0 | 0.00 | 0.00 | 0.00 | 76 | 1012.6 |
| 20260902121605 | 59 | 41 | 1.0 | 5.0 | 0.00 | 0.00 | 0.00 | 76 | 1012.7 |
| 20260902120844 | 59 | 339 | 2.0 | 6.0 | 0.00 | 0.00 | 0.00 | 77 | 1012.8 |
| 20260902120603 | 59 | 36 | 2.0 | 6.0 | 0.00 | 0.00 | 0.00 | 77 | 1012.8 |
| 20260902115842 | 59 | 61 | 1.0 | 5.0 | 0.00 | 0.00 | 0.00 | 77 | 1012.8 |
| 20260902115342 | 59 | 45 | 2.0 | 7.0 | 0.00 | 0.00 | 0.00 | 77 | 1012.9 |
| 20260902114842 | 59 | 346 | 2.0 | 7.0 | 0.00 | 0.00 | 0.00 | 77 | 1012.9 |
| 20260902114341 | 59 | 38 | 2.0 | 12.0 | 0.00 | 0.00 | 0.00 | 77 | 1012.9 |
| 20260902113842 | 59 | 336 | 3.0 | 12.0 | 0.00 | 0.00 | 0.00 | 77 | 1012.9 |
| 20260902113338 | 60 | 349 | 2.0 | 8.0 | 0.00 | 0.00 | 0.00 | 76 | 1012.8 |
| 20260902113100 | 59 | 40 | 1.0 | 6.0 | 0.00 | 0.00 | 0.00 | 77 | 1012.8 |
| 20260902112337 | 59 | 308 | 2.0 | 7.0 | 0.00 | 0.00 | 0.00 | 77 | 1012.9 |
| 20260902111837 | 59 | 55 | 2.0 | 7.0 | 0.00 | 0.00 | 0.00 | 77 | 1013.0 |
| 20260902111605 | 59 | 337 | 1.0 | 7.0 | 0.00 | 0.00 | 0.00 | 78 | 1013.0 |
| 20260902110834 | 59 | 19 | 1.0 | 7.0 | 0.00 | 0.00 | 0.00 | 78 | 1013.0 |
| 20260902110554 | 59 | 0 | 1.0 | 4.0 | 0.00 | 0.00 | 0.00 | 78 | 1013.1 |
| 20260902105834 | 59 | 296 | 1.0 | 5.0 | 0.00 | 0.00 | 0.00 | 78 | 1013.1 |
| 20260902105334 | 58 | 352 | 1.0 | 5.0 | 0.00 | 0.00 | 0.00 | 78 | 1013.1 |
| 20260902105059 | 58 | 292 | 0.0 | 5.0 | 0.00 | 0.00 | 0.00 | 78 | 1013.4 |
| 20260902104335 | 58 | 319 | 1.0 | 7.0 | 0.00 | 0.00 | 0.00 | 78 | 1013.4 |
| 20260902103835 | 58 | 293 | 1.0 | 7.0 | 0.00 | 0.00 | 0.00 | 79 | 1013.0 |
| 20260902103335 | 58 | 11 | 0.0 | 3.0 | 0.00 | 0.00 | 0.00 | 78 | 1013.1 |
| 20260902103058 | 58 | 39 | 0.0 | 2.0 | 0.00 | 0.00 | 0.00 | 78 | 1013.4 |
| 20260902102335 | 58 | 292 | 0.0 | 2.0 | 0.00 | 0.00 | 0.00 | 77 | 1013.4 |
| 20260902101837 | 58 | 26 | 0.0 | 1.0 | 0.00 | 0.00 | 0.00 | 77 | 1013.5 |
| 20260902101335 | 58 | 38 | 0.0 | 2.0 | 0.00 | 0.00 | 0.00 | 76 | 1013.5 |
| 20260902100836 | 58 | 31 | 0.0 | 4.0 | 0.00 | 0.00 | 0.00 | 75 | 1013.4 |
| 20260902100334 | 59 | 33 | 1.0 | 4.0 | 0.00 | 0.00 | 0.00 | 75 | 1013.4 |
| 20260902095835 | 59 | 341 | 1.0 | 3.0 | 0.00 | 0.00 | 0.00 | 74 | 1013.2 |
| 20260902095335 | 59 | 34 | 0.0 | 2.0 | 0.00 | 0.00 | 0.00 | 74 | 1013.6 |
| 20260902094834 | 59 | 41 | 0.0 | 5.0 | 0.00 | 0.00 | 0.00 | 74 | 1013.7 |
| 20260902094335 | 59 | 34 | 0.0 | 5.0 | 0.00 | 0.00 | 0.00 | 73 | 1013.6 |
| 20260902093835 | 59 | 22 | 0.0 | 4.0 | 0.00 | 0.00 | 0.00 | 73 | 1013.5 |
| 20260902093334 | 60 | 34 | 0.0 | 3.0 | 0.00 | 0.00 | 0.00 | 72 | 1013.4 |
| 20260902092836 | 60 | 31 | 0.0 | 3.0 | 0.00 | 0.00 | 0.00 | 71 | 1013.5 |
| 20260902092332 | 60 | 358 | 0.0 | 2.0 | 0.00 | 0.00 | 0.00 | 70 | 1013.7 |
| 20260902091833 | 60 | 14 | 0.0 | 2.0 | 0.00 | 0.00 | 0.00 | 69 | 1013.6 |
| 20260902091332 | 60 | 13 | 0.0 | 4.0 | 0.00 | 0.00 | 0.00 | 69 | 1013.5 |
| 20260902090826 | 61 | 303 | 1.0 | 4.0 | 0.00 | 0.00 | 0.00 | 68 | 1013.5 |
| 20260902090324 | 61 | 57 | 1.0 | 4.0 | 0.00 | 0.00 | 0.00 | 68 | 1013.6 |
| 20260902085824 | 61 | 25 | 0.0 | 3.0 | 0.00 | 0.00 | 0.00 | 67 | 1013.7 |
| 20260902085323 | 61 | 47 | 0.0 | 4.0 | 0.00 | 0.00 | 0.00 | 67 | 1013.8 |
| 20260902084829 | 61 | 339 | 0.0 | 4.0 | 0.00 | 0.00 | 0.00 | 67 | 1013.9 |
| 20260902084324 | 61 | 299 | 0.0 | 4.0 | 0.00 | 0.00 | 0.00 | 66 | 1013.8 |
| 20260902083824 | 61 | 33 | 1.0 | 6.0 | 0.00 | 0.00 | 0.00 | 66 | 1013.8 |
| 20260902083323 | 61 | 313 | 2.0 | 6.0 | 0.00 | 0.00 | 0.00 | 65 | 1013.8 |
| 20260902082824 | 61 | 275 | 2.0 | 5.0 | 0.00 | 0.00 | 0.00 | 65 | 1013.6 |
| 20260902082324 | 61 | 299 | 2.0 | 8.0 | 0.00 | 0.00 | 0.00 | 65 | 1013.7 |
| 20260902082047 | 61 | 294 | 1.0 | 8.0 | 0.00 | 0.00 | 0.00 | 65 | 1013.5 |
| 20260902081324 | 61 | 312 | 0.0 | 1.0 | 0.00 | 0.00 | 0.00 | 64 | 1013.5 |
| 20260902080820 | 61 | 339 | 0.0 | 2.0 | 0.00 | 0.00 | 0.00 | 64 | 1013.5 |
| 20260902080320 | 61 | 290 | 0.0 | 3.0 | 0.00 | 0.00 | 0.00 | 63 | 1013.6 |
| 20260902075820 | 62 | 290 | 1.0 | 5.0 | 0.00 | 0.00 | 0.00 | 63 | 1013.5 |
| 20260902075318 | 62 | 318 | 1.0 | 7.0 | 0.00 | 0.00 | 0.00 | 62 | 1013.4 |
| 20260902074816 | 62 | 270 | 1.0 | 7.0 | 0.00 | 0.00 | 0.00 | 62 | 1013.4 |
| 20260902074317 | 62 | 353 | 1.0 | 4.0 | 0.00 | 0.00 | 0.00 | 62 | 1013.4 |
| 20260902074038 | 62 | 268 | 1.0 | 5.0 | 0.00 | 0.00 | 0.00 | 61 | 1013.4 |
| 20260902073317 | 63 | 59 | 1.0 | 5.0 | 0.00 | 0.00 | 0.00 | 61 | 1013.2 |
| 20260902072803 | 63 | 301 | 1.0 | 6.0 | 0.00 | 0.00 | 0.00 | 60 | 1013.4 |
| 20260902072524 | 63 | 320 | 1.0 | 6.0 | 0.00 | 0.00 | 0.00 | 61 | 1013.5 |
| 20260902071755 | 63 | 343 | 2.0 | 9.0 | 0.00 | 0.00 | 0.00 | 60 | 1013.5 |
| 20260902071247 | 63 | 251 | 2.0 | 9.0 | 0.00 | 0.00 | 0.00 | 59 | 1013.2 |
| 20260902070747 | 64 | 297 | 3.0 | 7.0 | 0.00 | 0.00 | 0.00 | 58 | 1013.4 |
| 20260902070234 | 64 | 213 | 3.0 | 9.0 | 0.00 | 0.00 | 0.00 | 58 | 1013.4 |
| 20260902065730 | 64 | 293 | 4.0 | 13.0 | 0.00 | 0.00 | 0.00 | 57 | 1013.2 |
| 20260902065225 | 64 | 284 | 4.0 | 13.0 | 0.00 | 0.00 | 0.00 | 57 | 1013.2 |
| 20260902064718 | 64 | 278 | 4.0 | 11.0 | 0.00 | 0.00 | 0.00 | 57 | 1013.1 |
| 20260902064217 | 65 | 301 | 3.0 | 9.0 | 0.00 | 0.00 | 0.00 | 56 | 1013.1 |
| 20260902063706 | 65 | 331 | 3.0 | 11.0 | 0.00 | 0.00 | 0.00 | 55 | 1012.9 |
| 20260902063200 | 65 | 304 | 3.0 | 11.0 | 0.00 | 0.00 | 0.00 | 55 | 1012.9 |
| 20260902063136 | 65 | 303 | 3.0 | 15.0 | 0.00 | 0.00 | 0.00 | 55 | 1012.9 |
| 20260902062147 | 65 | 259 | 2.0 | 15.0 | 0.00 | 0.00 | 0.00 | 55 | 1013.0 |
| 20260902061733 | 65 | 263 | 2.0 | 8.0 | 0.00 | 0.00 | 0.00 | 56 | 1012.9 |
| 20260902060629 | 65 | 269 | 4.0 | 14.0 | 0.00 | 0.00 | 0.00 | 54 | 1012.9 |
| 20260902060125 | 66 | 292 | 5.0 | 14.0 | 0.00 | 0.00 | 0.00 | 53 | 1012.9 |
| 20260902055618 | 66 | 251 | 4.0 | 12.0 | 0.00 | 0.00 | 0.00 | 52 | 1012.9 |
| 20260902055112 | 67 | 261 | 4.0 | 12.0 | 0.00 | 0.00 | 0.00 | 52 | 1013.0 |
| 20260902054605 | 67 | 287 | 4.0 | 11.0 | 0.00 | 0.00 | 0.00 | 53 | 1013.0 |
| 20260902054059 | 67 | 257 | 4.0 | 16.0 | 0.00 | 0.00 | 0.00 | 50 | 1013.1 |
| 20260902053555 | 68 | 321 | 3.0 | 16.0 | 0.00 | 0.00 | 0.00 | 50 | 1013.2 |
| 20260902053047 | 68 | 294 | 3.0 | 9.0 | 0.00 | 0.00 | 0.00 | 51 | 1013.2 |
| 20260902052541 | 68 | 255 | 3.0 | 8.0 | 0.00 | 0.00 | 0.00 | 50 | 1013.2 |
| 20260902052036 | 68 | 251 | 4.0 | 12.0 | 0.00 | 0.00 | 0.00 | 50 | 1013.4 |
| 20260902051529 | 68 | 302 | 3.0 | 12.0 | 0.00 | 0.00 | 0.00 | 50 | 1013.5 |
| 20260902051025 | 67 | 265 | 3.0 | 12.0 | 0.00 | 0.00 | 0.00 | 52 | 1013.4 |
| 20260902050749 | 67 | 252 | 4.0 | 12.0 | 0.00 | 0.00 | 0.00 | 51 | 1013.4 |
| 20260902050023 | 67 | 308 | 3.0 | 8.0 | 0.00 | 0.00 | 0.00 | 51 | 1013.4 |
| 20260902045505 | 67 | 219 | 2.0 | 8.0 | 0.00 | 0.00 | 0.00 | 50 | 1013.2 |
| 20260902044959 | 67 | 253 | 2.0 | 7.0 | 0.00 | 0.00 | 0.00 | 51 | 1013.4 |
| 20260902044500 | 67 | 289 | 3.0 | 7.0 | 0.00 | 0.00 | 0.00 | 51 | 1013.4 |
| 20260902043948 | 67 | 257 | 3.0 | 9.0 | 0.00 | 0.00 | 0.00 | 50 | 1013.2 |
| 20260902043448 | 67 | 241 | 4.0 | 11.0 | 0.00 | 0.00 | 0.00 | 50 | 1013.2 |
| 20260902042935 | 67 | 1 | 4.0 | 11.0 | 0.00 | 0.00 | 0.00 | 50 | 1013.2 |
| 20260902042655 | 67 | 247 | 3.0 | 9.0 | 0.00 | 0.00 | 0.00 | 49 | 1013.1 |
| 20260902042147 | 68 | 334 | 4.0 | 11.0 | 0.00 | 0.00 | 0.00 | 48 | 1013.1 |
| 20260902041635 | 69 | 256 | 4.0 | 11.0 | 0.00 | 0.00 | 0.00 | 47 | 1013.1 |
| 20260902041145 | 69 | 306 | 3.0 | 10.0 | 0.00 | 0.00 | 0.00 | 50 | 1013.1 |
| 20260902040404 | 69 | 201 | 2.0 | 10.0 | 0.00 | 0.00 | 0.00 | 49 | 1013.2 |
| 20260902035900 | 68 | 258 | 3.0 | 11.0 | 0.00 | 0.00 | 0.00 | 50 | 1013.2 |
| 20260902035617 | 69 | 223 | 3.0 | 11.0 | 0.00 | 0.00 | 0.00 | 48 | 1013.1 |
| 20260902035515 | 69 | 268 | 2.0 | 8.0 | 0.00 | 0.00 | 0.00 | 49 | 1013.2 |
| 20260902033836 | 69 | 287 | 4.0 | 12.0 | 0.00 | 0.00 | 0.00 | 48 | 1013.2 |
| 20260902033329 | 69 | 223 | 3.0 | 9.0 | 0.00 | 0.00 | 0.00 | 48 | 1013.2 |
| 20260902032825 | 68 | 263 | 4.0 | 12.0 | 0.00 | 0.00 | 0.00 | 49 | 1013.4 |
| 20260902032318 | 68 | 235 | 5.0 | 14.0 | 0.00 | 0.00 | 0.00 | 48 | 1013.4 |
| 20260902031814 | 68 | 337 | 4.0 | 14.0 | 0.00 | 0.00 | 0.00 | 49 | 1013.5 |
| 20260902031526 | 69 | 268 | 3.0 | 15.0 | 0.00 | 0.00 | 0.00 | 47 | 1013.6 |
| 20260902030759 | 69 | 294 | 4.0 | 15.0 | 0.00 | 0.00 | 0.00 | 49 | 1013.7 |
| 20260902030255 | 68 | 298 | 4.0 | 15.0 | 0.00 | 0.00 | 0.00 | 50 | 1013.7 |
| 20260902025747 | 68 | 72 | 4.0 | 15.0 | 0.00 | 0.00 | 0.00 | 49 | 1013.9 |
| 20260902025244 | 69 | 244 | 3.0 | 12.0 | 0.00 | 0.00 | 0.00 | 48 | 1013.9 |
| 20260902024736 | 68 | 344 | 3.0 | 12.0 | 0.00 | 0.00 | 0.00 | 52 | 1014.1 |
| 20260902024724 | 68 | 263 | 2.0 | 9.0 | 0.00 | 0.00 | 0.00 | 51 | 1014.0 |
| 20260902023725 | 67 | 296 | 1.0 | 7.0 | 0.00 | 0.00 | 0.00 | 55 | 1014.2 |
| 20260902023220 | 66 | 322 | 1.0 | 7.0 | 0.00 | 0.00 | 0.00 | 58 | 1014.2 |
| 20260902022720 | 66 | 273 | 2.0 | 8.0 | 0.00 | 0.00 | 0.00 | 59 | 1014.3 |
| 20260902022217 | 66 | 19 | 2.0 | 8.0 | 0.00 | 0.00 | 0.00 | 60 | 1014.4 |
| 20260902021718 | 65 | 313 | 2.0 | 8.0 | 0.00 | 0.00 | 0.00 | 61 | 1014.5 |
| 20260902021218 | 65 | 308 | 3.0 | 7.0 | 0.00 | 0.00 | 0.00 | 60 | 1014.7 |
| 20260902020718 | 66 | 329 | 2.0 | 7.0 | 0.00 | 0.00 | 0.00 | 60 | 1014.6 |
| 20260902020439 | 66 | 55 | 2.0 | 8.0 | 0.00 | 0.00 | 0.00 | 60 | 1014.7 |
| 20260902015947 | 66 | 40 | 2.0 | 9.0 | 0.00 | 0.00 | 0.00 | 60 | 1014.7 |
| 20260902015218 | 66 | 50 | 2.0 | 12.0 | 0.00 | 0.00 | 0.00 | 59 | 1015.0 |
| 20260902014718 | 66 | 337 | 3.0 | 12.0 | 0.00 | 0.00 | 0.00 | 61 | 1015.1 |
| 20260902014215 | 66 | 298 | 3.0 | 12.0 | 0.00 | 0.00 | 0.00 | 60 | 1015.2 |
| 20260902013716 | 66 | 11 | 2.0 | 12.0 | 0.00 | 0.00 | 0.00 | 58 | 1015.2 |
| 20260902013217 | 66 | 11 | 2.0 | 7.0 | 0.00 | 0.00 | 0.00 | 60 | 1015.3 |
| 20260902012712 | 66 | 356 | 3.0 | 7.0 | 0.00 | 0.00 | 0.00 | 58 | 1015.3 |
| 20260902012212 | 66 | 308 | 3.0 | 7.0 | 0.00 | 0.00 | 0.00 | 59 | 1015.3 |
| 20260902011712 | 66 | 326 | 3.0 | 10.0 | 0.00 | 0.00 | 0.00 | 60 | 1015.4 |
| 20260902011212 | 66 | 320 | 2.0 | 10.0 | 0.00 | 0.00 | 0.00 | 58 | 1015.4 |
| 20260902010712 | 65 | 303 | 3.0 | 9.0 | 0.00 | 0.00 | 0.00 | 59 | 1015.4 |
| 20260902010433 | 65 | 296 | 3.0 | 9.0 | 0.00 | 0.00 | 0.00 | 59 | 1015.4 |
| 20260902005711 | 65 | 325 | 3.0 | 12.0 | 0.00 | 0.00 | 0.00 | 59 | 1015.5 |
| 20260902005212 | 65 | 11 | 3.0 | 12.0 | 0.00 | 0.00 | 0.00 | 59 | 1015.5 |
| 20260902004931 | 65 | 289 | 3.0 | 11.0 | 0.00 | 0.00 | 0.00 | 59 | 1015.5 |
| 20260902004208 | 64 | 32 | 4.0 | 11.0 | 0.00 | 0.00 | 0.00 | 59 | 1015.6 |
| 20260902003927 | 64 | 319 | 3.0 | 10.0 | 0.00 | 0.00 | 0.00 | 61 | 1015.7 |
| 20260902003208 | 64 | 358 | 3.0 | 10.0 | 0.00 | 0.00 | 0.00 | 62 | 1015.6 |
| 20260902002708 | 64 | 5 | 4.0 | 12.0 | 0.00 | 0.00 | 0.00 | 63 | 1015.7 |
| 20260902002433 | 63 | 295 | 3.0 | 12.0 | 0.00 | 0.00 | 0.00 | 62 | 1015.8 |
| 20260902001708 | 63 | 236 | 3.0 | 10.0 | 0.00 | 0.00 | 0.00 | 64 | 1015.7 |
| 20260902001207 | 62 | 306 | 4.0 | 11.0 | 0.00 | 0.00 | 0.00 | 65 | 1015.7 |
| 20260902000708 | 62 | 339 | 4.0 | 11.0 | 0.00 | 0.00 | 0.00 | 65 | 1015.8 |
| 20260902000208 | 62 | 284 | 5.0 | 13.0 | 0.00 | 0.00 | 0.00 | 66 | 1015.7 |
| 20260901235702 | 61 | 70 | 5.0 | 15.0 | 0.00 | 0.00 | 0.00 | 67 | 1015.8 |
| 20260901235201 | 61 | 328 | 4.0 | 15.0 | 0.00 | 0.00 | 0.00 | 67 | 1015.9 |
| 20260901234932 | 61 | 254 | 3.0 | 8.0 | 0.00 | 0.00 | 0.00 | 68 | 1015.9 |
| 20260901234202 | 61 | 24 | 3.0 | 9.0 | 0.00 | 0.00 | 0.00 | 68 | 1015.8 |
| 20260901233659 | 61 | 36 | 3.0 | 9.0 | 0.00 | 0.00 | 0.00 | 68 | 1015.8 |
| 20260901233158 | 60 | 21 | 3.0 | 11.0 | 0.00 | 0.00 | 0.00 | 68 | 1015.8 |
| 20260901232655 | 60 | 38 | 3.0 | 11.0 | 0.00 | 0.00 | 0.00 | 69 | 1015.8 |
| 20260901232156 | 60 | 1 | 2.0 | 8.0 | 0.00 | 0.00 | 0.00 | 68 | 1015.7 |
| 20260901231915 | 60 | 29 | 2.0 | 10.0 | 0.00 | 0.00 | 0.00 | 69 | 1015.8 |
| 20260901231155 | 60 | 284 | 3.0 | 10.0 | 0.00 | 0.00 | 0.00 | 69 | 1015.8 |
| 20260901230656 | 60 | 16 | 3.0 | 7.0 | 0.00 | 0.00 | 0.00 | 70 | 1015.8 |
| 20260901230155 | 60 | 38 | 2.0 | 8.0 | 0.00 | 0.00 | 0.00 | 69 | 1015.8 |
| 20260901225655 | 59 | 16 | 2.0 | 8.0 | 0.00 | 0.00 | 0.00 | 71 | 1015.9 |
| 20260901225155 | 59 | 27 | 2.0 | 9.0 | 0.00 | 0.00 | 0.00 | 71 | 1015.9 |
| 20260901224648 | 59 | 357 | 2.0 | 9.0 | 0.00 | 0.00 | 0.00 | 72 | 1015.8 |
| 20260901224143 | 58 | 310 | 2.0 | 7.0 | 0.00 | 0.00 | 0.00 | 72 | 1015.9 |
| 20260901223643 | 58 | 54 | 2.0 | 5.0 | 0.00 | 0.00 | 0.00 | 73 | 1015.9 |
| 20260901223141 | 58 | 71 | 2.0 | 9.0 | 0.00 | 0.00 | 0.00 | 74 | 1015.9 |
| 20260901222901 | 57 | 37 | 2.0 | 9.0 | 0.00 | 0.00 | 0.00 | 75 | 1015.9 |
| 20260901222139 | 57 | 52 | 2.0 | 7.0 | 0.00 | 0.00 | 0.00 | 76 | 1016.0 |
| 20260901221639 | 56 | 32 | 3.0 | 9.0 | 0.00 | 0.00 | 0.00 | 76 | 1016.0 |
| 20260901221138 | 56 | 31 | 2.0 | 9.0 | 0.00 | 0.00 | 0.00 | 77 | 1015.9 |
| 20260901220635 | 56 | 315 | 2.0 | 9.0 | 0.00 | 0.00 | 0.00 | 77 | 1015.9 |
| 20260901220356 | 55 | 356 | 3.0 | 10.0 | 0.00 | 0.00 | 0.00 | 78 | 1015.9 |
| 20260901215635 | 55 | 45 | 3.0 | 10.0 | 0.00 | 0.00 | 0.00 | 79 | 1015.9 |
| 20260901215135 | 55 | 321 | 1.0 | 7.0 | 0.00 | 0.00 | 0.00 | 80 | 1015.8 |
| 20260901214635 | 54 | 80 | 1.0 | 4.0 | 0.00 | 0.00 | 0.00 | 82 | 1015.7 |
| 20260901214135 | 53 | 14 | 1.0 | 4.0 | 0.00 | 0.00 | 0.00 | 83 | 1015.7 |
| 20260901213635 | 53 | 55 | 1.0 | 5.0 | 0.00 | 0.00 | 0.00 | 84 | 1015.7 |
| 20260901213230 | 53 | 45 | 1.0 | 5.0 | 0.00 | 0.00 | 0.00 | 85 | 1015.7 |